This is the latest recevied weather packets stored in our database for station/object K7ZQU-7. If no packets are shown the sender has not sent any weather packets the latest 10 day(s).
| Time | Temp. | Humidity | Pressure | Rain* | Wind** | Luminosity | Snow |
|---|---|---|---|---|---|---|---|
| 1777653979 | 12.22° C | 44% | 1016.2 hPa | 0 mm | 0.89 m/s, 167° | - | - |
| 1777653381 | 12.22° C | 45% | 1016.2 hPa | 0 mm | 1.34 m/s, 103° | - | - |
| 1777653079 | 12.22° C | 47% | 1016 hPa | 0 mm | 1.34 m/s, 232° | - | - |
| 1777652780 | 12.22° C | 48% | 1016 hPa | 0 mm | 0.89 m/s, 79° | - | - |
| 1777652481 | 12.22° C | 46% | 1016 hPa | 0 mm | 1.79 m/s, 10° | - | - |
| 1777652182 | 12.22° C | 47% | 1015.9 hPa | 0 mm | 1.79 m/s, 197° | - | - |
| 1777651581 | 11.67° C | 48% | 1016 hPa | 0 mm | 1.79 m/s, 128° | - | - |
| 1777651283 | 11.67° C | 50% | 1015.9 hPa | 0 mm | 0.45 m/s, 200° | - | - |
| 1777650983 | 11.67° C | 50% | 1015.9 hPa | 0 mm | 1.79 m/s, 205° | - | - |
| 1777650684 | 11.11° C | 53% | 1015.9 hPa | 0 mm | 0.89 m/s, 114° | - | - |
| 1777650385 | 11.11° C | 53% | 1015.9 hPa | 0 mm | 0.45 m/s, 103° | - | - |
| 1777650083 | 11.11° C | 52% | 1015.9 hPa | 0 mm | 0.45 m/s, 153° | - | - |
| 1777649485 | 11.11° C | 53% | 1015.8 hPa | 0 mm | 1.34 m/s, 158° | - | - |
| 1777649186 | 11.11° C | 54% | 1015.8 hPa | 0 mm | 0 m/s | - | - |
| 1777648887 | 10.56° C | 54% | 1015.7 hPa | 0 mm | 0.45 m/s, 138° | - | - |
| 1777648585 | 10.56° C | 54% | 1015.7 hPa | 0 mm | 1.79 m/s, 229° | - | - |
| 1777647987 | 10.56° C | 55% | 1015.7 hPa | 0 mm | 1.79 m/s, 193° | - | - |
| 1777647688 | 10° C | 58% | 1015.7 hPa | 0 mm | 0.45 m/s, 190° | - | - |
| 1777647389 | 10° C | 57% | 1015.6 hPa | 0 mm | 1.34 m/s, 211° | - | - |
| 1777647087 | 9.44° C | 57% | 1015.7 hPa | 0 mm | 1.79 m/s, 156° | - | - |
| 1777646788 | 8.89° C | 59% | 1015.6 hPa | 0 mm | 0.45 m/s, 90° | - | - |
| 1777646189 | 8.89° C | 61% | 1015.7 hPa | 0 mm | 0.45 m/s, 245° | - | - |
| 1777645588 | 7.78° C | 63% | 1015.6 hPa | 0 mm | 0.45 m/s, 158° | - | - |
| 1777645289 | 7.22° C | 65% | 1015.6 hPa | 0 mm | 0.45 m/s, 239° | - | - |
| 1777644990 | 7.22° C | 66% | 1015.6 hPa | 0 mm | 1.34 m/s, 214° | - | - |
* Rain latest hour (hover to see other rain measurements)
** Current wind speed in m/s (hover to see current wind gust speed)